Météo par heure à Kyzyl-Barzhau

Ce jour, 24 Juillet, Samedi

Heure Température Précipitation Vent Pression Humidité
00:00 +16°C° 0 mm 1 m/s 738 mmHg 77%
01:00 +15°C° 0 mm 1 m/s 738 mmHg 79%
02:00 +15°C° 0 mm 1 m/s 738 mmHg 81%
03:00 +15°C° 0 mm 1 m/s 738 mmHg 82%
04:00 +14°C° 0 mm 1 m/s 738 mmHg 84%
05:00 +16°C° 0 mm 1 m/s 738 mmHg 78%
06:00 +16°C° 0 mm 0 m/s 739 mmHg 72%
07:00 +18°C° 0 mm 0 m/s 739 mmHg 66%
08:00 +21°C° 0 mm 1 m/s 739 mmHg 60%
09:00 +23°C° 0 mm 1 m/s 739 mmHg 53%
10:00 +24°C° 0 mm 1 m/s 739 mmHg 47%
11:00 +25°C° 0 mm 2 m/s 739 mmHg 44%
12:00 +26°C° 0 mm 2 m/s 739 mmHg 40%
13:00 +26°C° 0 mm 2 m/s 739 mmHg 37%
14:00 +26°C° 0 mm 3 m/s 739 mmHg 37%
15:00 +26°C° 0 mm 3 m/s 739 mmHg 36%
16:00 +26°C° 0 mm 3 m/s 739 mmHg 36%
17:00 +25°C° 0 mm 3 m/s 740 mmHg 41%
18:00 +24°C° 0 mm 3 m/s 740 mmHg 46%
19:00 +22°C° 0 mm 3 m/s 740 mmHg 51%
20:00 +20°C° 0 mm 3 m/s 740 mmHg 58%
21:00 +18°C° 0 mm 2 m/s 741 mmHg 65%
22:00 +16°C° 0 mm 2 m/s 741 mmHg 73%
23:00 +15°C° 0.3 mm 2 m/s 742 mmHg 80%

Demain, 25 Juillet, Dimanche

Heure Température Précipitation Vent Pression Humidité
00:00 +15°C° 0.3 mm 2 m/s 742 mmHg 87%
01:00 +14°C° 0.3 mm 2 m/s 742 mmHg 94%
02:00 +13°C° 0 mm 2 m/s 743 mmHg 95%
03:00 +13°C° 0 mm 2 m/s 743 mmHg 95%
04:00 +12°C° 0 mm 2 m/s 744 mmHg 96%
05:00 +13°C° 0 mm 2 m/s 744 mmHg 93%
06:00 +13°C° 0 mm 3 m/s 745 mmHg 90%
07:00 +13°C° 0 mm 3 m/s 746 mmHg 87%
08:00 +16°C° 0 mm 3 m/s 746 mmHg 74%
09:00 +18°C° 0 mm 4 m/s 746 mmHg 61%
10:00 +19°C° 0 mm 4 m/s 747 mmHg 49%
11:00 +20°C° 0 mm 4 m/s 747 mmHg 43%
12:00 +21°C° 0 mm 4 m/s 747 mmHg 38%
13:00 +22°C° 0 mm 4 m/s 747 mmHg 32%
14:00 +22°C° 0 mm 4 m/s 748 mmHg 31%
15:00 +22°C° 0 mm 4 m/s 748 mmHg 30%
16:00 +22°C° 0 mm 5 m/s 748 mmHg 30%
17:00 +21°C° 0 mm 4 m/s 748 mmHg 34%
18:00 +20°C° 0 mm 4 m/s 748 mmHg 39%
19:00 +19°C° 0 mm 3 m/s 749 mmHg 43%
20:00 +17°C° 0 mm 2 m/s 749 mmHg 49%
21:00 +15°C° 0 mm 2 m/s 749 mmHg 55%
22:00 +13°C° 0 mm 1 m/s 750 mmHg 61%
23:00 +12°C° 0 mm 1 m/s 750 mmHg 64%

Après-demain, 26 Juillet, Lundi

Heure Température Précipitation Vent Pression Humidité
00:00 +11°C° 0 mm 1 m/s 750 mmHg 67%
01:00 +11°C° 0 mm 1 m/s 751 mmHg 70%
02:00 +10°C° 0 mm 1 m/s 751 mmHg 72%
03:00 +10°C° 0 mm 1 m/s 751 mmHg 73%
04:00 +9°C° 0 mm 1 m/s 751 mmHg 74%
05:00 +11°C° 0 mm 1 m/s 751 mmHg 68%
06:00 +12°C° 0 mm 1 m/s 752 mmHg 61%
07:00 +14°C° 0 mm 1 m/s 752 mmHg 55%
08:00 +16°C° 0 mm 1 m/s 752 mmHg 50%
09:00 +17°C° 0 mm 2 m/s 752 mmHg 45%
10:00 +19°C° 0 mm 2 m/s 752 mmHg 40%
11:00 +19°C° 0 mm 2 m/s 752 mmHg 38%
12:00 +20°C° 0 mm 3 m/s 751 mmHg 37%
13:00 +21°C° 0 mm 3 m/s 751 mmHg 36%
14:00 +21°C° 0 mm 3 m/s 751 mmHg 37%
15:00 +21°C° 0 mm 4 m/s 751 mmHg 38%
16:00 +21°C° 0 mm 4 m/s 751 mmHg 39%
17:00 +20°C° 0 mm 3 m/s 750 mmHg 43%
18:00 +19°C° 0 mm 2 m/s 750 mmHg 47%
19:00 +20°C° 0 mm 1 m/s 750 mmHg 52%
20:00 +18°C° 0 mm 1 m/s 750 mmHg 55%
21:00 +16°C° 0 mm 1 m/s 750 mmHg 59%
22:00 +14°C° 0 mm 1 m/s 750 mmHg 62%
23:00 +14°C° 0 mm 1 m/s 750 mmHg 64%

27 Juillet, Mardi

Heure Température Précipitation Vent Pression Humidité
00:00 +13°C° 0 mm 1 m/s 750 mmHg 66%
01:00 +13°C° 0 mm 1 m/s 750 mmHg 68%
02:00 +13°C° 0 mm 1 m/s 750 mmHg 68%
03:00 +13°C° 0 mm 1 m/s 749 mmHg 69%
04:00 +13°C° 0 mm 1 m/s 749 mmHg 69%
05:00 +14°C° 0 mm 1 m/s 749 mmHg 66%
06:00 +15°C° 0 mm 2 m/s 749 mmHg 63%
07:00 +16°C° 0 mm 2 m/s 749 mmHg 60%
08:00 +18°C° 0 mm 3 m/s 749 mmHg 53%
09:00 +20°C° 0 mm 3 m/s 748 mmHg 47%
10:00 +23°C° 0 mm 4 m/s 748 mmHg 40%
11:00 +23°C° 0 mm 4 m/s 748 mmHg 40%
12:00 +23°C° 0 mm 4 m/s 747 mmHg 39%
13:00 +23°C° 0 mm 4 m/s 747 mmHg 39%
14:00 +23°C° 0.1 mm 5 m/s 746 mmHg 43%
15:00 +22°C° 0.1 mm 5 m/s 746 mmHg 47%
16:00 +22°C° 0.1 mm 5 m/s 746 mmHg 51%
17:00 +22°C° 0.1 mm 4 m/s 746 mmHg 52%
18:00 +21°C° 0.1 mm 4 m/s 746 mmHg 52%
19:00 +21°C° 0.1 mm 4 m/s 746 mmHg 53%
20:00 +19°C° 0 mm 3 m/s 746 mmHg 59%
21:00 +16°C° 0 mm 2 m/s 746 mmHg 64%
22:00 +14°C° 0 mm 1 m/s 747 mmHg 70%
23:00 +13°C° 0 mm 1 m/s 747 mmHg 73%

28 Juillet, Mercredi

Heure Température Précipitation Vent Pression Humidité
00:00 +12°C° 0 mm 1 m/s 747 mmHg 76%
01:00 +11°C° 0 mm 1 m/s 747 mmHg 78%
02:00 +11°C° 0 mm 1 m/s 747 mmHg 80%
03:00 +10°C° 0 mm 1 m/s 747 mmHg 81%
04:00 +10°C° 0 mm 1 m/s 748 mmHg 83%
05:00 +11°C° 0 mm 1 m/s 748 mmHg 76%
06:00 +13°C° 0 mm 1 m/s 748 mmHg 68%
07:00 +15°C° 0 mm 1 m/s 748 mmHg 61%
08:00 +16°C° 0 mm 1 m/s 748 mmHg 54%
09:00 +19°C° 0 mm 1 m/s 748 mmHg 46%
10:00 +20°C° 0 mm 2 m/s 748 mmHg 38%
11:00 +21°C° 0 mm 2 m/s 747 mmHg 35%
12:00 +23°C° 0 mm 2 m/s 747 mmHg 32%
13:00 +24°C° 0 mm 2 m/s 747 mmHg 29%
14:00 +25°C° 0 mm 2 m/s 746 mmHg 28%
15:00 +25°C° 0 mm 2 m/s 746 mmHg 27%
16:00 +26°C° 0 mm 2 m/s 746 mmHg 26%
17:00 +25°C° 0 mm 2 m/s 745 mmHg 32%
18:00 +24°C° 0 mm 1 m/s 745 mmHg 38%
19:00 +21°C° 0 mm 0 m/s 745 mmHg 44%
20:00 +18°C° 0 mm 0 m/s 745 mmHg 47%
21:00 +16°C° 0 mm 0 m/s 745 mmHg 51%
22:00 +14°C° 0 mm 0 m/s 744 mmHg 54%
23:00 +15°C° 0 mm 1 m/s 744 mmHg 55%

29 Juillet, Jeudi

Heure Température Précipitation Vent Pression Humidité
00:00 +14°C° 0 mm 1 m/s 744 mmHg 57%
01:00 +14°C° 0 mm 2 m/s 744 mmHg 58%
02:00 +14°C° 0 mm 2 m/s 744 mmHg 59%
03:00 +14°C° 0 mm 2 m/s 744 mmHg 60%
04:00 +14°C° 0 mm 2 m/s 744 mmHg 61%
05:00 +15°C° 0.1 mm 2 m/s 744 mmHg 63%
06:00 +16°C° 0.1 mm 2 m/s 744 mmHg 65%
07:00 +17°C° 0.1 mm 2 m/s 744 mmHg 67%
08:00 +19°C° 0.1 mm 2 m/s 744 mmHg 63%
09:00 +21°C° 0.1 mm 3 m/s 744 mmHg 58%
10:00 +24°C° 0.1 mm 3 m/s 744 mmHg 53%
11:00 +26°C° 0 mm 3 m/s 743 mmHg 47%
12:00 +28°C° 0 mm 4 m/s 743 mmHg 41%
13:00 +30°C° 0 mm 4 m/s 743 mmHg 35%
14:00 +29°C° 0 mm 4 m/s 742 mmHg 36%
15:00 +29°C° 0 mm 3 m/s 742 mmHg 37%
16:00 +29°C° 0 mm 3 m/s 742 mmHg 38%
17:00 +27°C° 0 mm 2 m/s 742 mmHg 45%
18:00 +25°C° 0 mm 2 m/s 742 mmHg 52%
19:00 +23°C° 0 mm 1 m/s 742 mmHg 59%
20:00 +22°C° 0 mm 1 m/s 743 mmHg 62%
21:00 +21°C° 0 mm 1 m/s 743 mmHg 65%
22:00 +21°C° 0 mm 1 m/s 743 mmHg 67%
23:00 +19°C° 0 mm 2 m/s 743 mmHg 68%
Voir plus

Nous avons besoin de votre consentement

Meteoprog et ses fournisseurs de services peuvent stocker et accéder à des données personnelles telles que des cookies, des identifiants d'appareils ou d'autres technologies similaires sur votre appareil et traiter ces données pour personnaliser le contenu et les publicités, ainsi que pour fournir des fonctionnalités de médias sociaux et analyser le trafic.

  • Stocker et/ou accéder à des informations sur votre appareil

    Des cookies, des identifiants d'appareils ou d'autres informations peuvent être stockés ou accessibles sur votre appareil aux fins indiquées ci-dessus.

  • Annonces et contenus personnalisés, mesure des annonces et des contenus, connaissance de l'audience et développement de produits

    Les annonces et le contenu peuvent être personnalisés en fonction d'un profil. D'autres données peuvent être ajoutées pour mieux personnaliser les annonces et le contenu. Les performances des publicités et du contenu peuvent être mesurées. Il est possible d'obtenir des informations sur le public qui a vu les publicités et le contenu. Ces données peuvent être utilisées pour développer ou améliorer l'expérience de l'utilisateur, les systèmes et les logiciels.

En cliquant sur "J'accepte", vous autorisez l'utilisation de cookies, des identifiants d'appareils, des balises web ou d'autres technologies similaires. Vos paramètres peuvent être modifiés dans le navigateur de votre appareil.

Dans certains cas, des intérêts légitimes peuvent être invoqués plutôt qu'un consentement. Vous pouvez en savoir plus à ce sujet dans notre Politique de confidentialité et de cookies.